Location: Bouchavesnes-Bergen
(49.9859°N, 2.9203°E)
Time: 00:21:17
(UTC+00:00)

IDEFIX/ARIANE 42P - Pass Details

Date: 27 September 2022
Orbit: 784 x 803 km, 98.5° (Epoch: 05 December)

Event Time Altitude Azimuth Distance (km) Brightness Sun altitude
Rises 04:09:50 0° 2° (N) 3,329 6.0 -15.5°
Reaches altitude 10° 04:13:27 10° 336° (NNW) 2,393 5.0 -14.9°
Maximum altitude 04:15:48 13° 310° (NW) 2,176 4.5 -14.5°
Enters shadow 04:16:55 12° 296° (WNW) 2,225 4.5 -14.4°
